Location: Aurora Center
(43.5271°N, 98.5894°W)
Time: 12:58:47
(UTC-05:00)

ISS - Visible Passes

Search period start: 18 May 2026 00:00
Search period end: 28 May 2026 00:00
Orbit: 414 x 424 km, 51.6° (Epoch: 18 May)

Date Brightness Start Highest point End Pass type
(mag) Time Alt. Az. Time Alt. Az. Time Alt. Az.
18 May -2.1 00:11:38 10° NW 00:13:40 33° NW 00:13:40 33° NW visible
18 May -1.4 21:47:16 10° NW 21:49:51 20° N 21:52:27 10° ENE visible
18 May -3.0 23:24:00 10° NW 23:27:14 45° NNE 23:27:36 43° NE visible
19 May -2.3 22:36:23 10° NW 22:39:27 33° NNE 22:41:32 17° ENE visible
20 May -1.6 00:13:06 10° WNW 00:14:28 21° WNW 00:14:28 21° WNW visible
20 May -1.9 21:48:44 10° NW 21:51:37 26° NNE 21:54:31 10° ENE visible
20 May -3.7 23:25:21 10° WNW 23:28:26 71° W 23:28:26 71° W visible
21 May -3.6 22:37:39 10° NW 22:40:59 67° NNE 22:42:25 30° ESE visible
22 May -0.9 00:15:11 10° W 00:15:21 11° W 00:15:21 11° W visible
22 May -2.9 21:50:00 10° NW 21:53:14 44° NNE 21:56:27 10° E visible
22 May -2.3 23:27:00 10° WNW 23:29:23 26° WSW 23:29:23 26° WSW visible
23 May -3.2 22:39:05 10° WNW 22:42:17 46° SW 22:43:26 31° SSE visible
24 May -3.8 21:51:18 10° WNW 21:54:38 78° SSW 21:57:32 13° SE visible
24 May -1.0 23:30:22 10° WSW 23:30:29 10° WSW 23:30:29 10° WSW visible
25 May -1.7 22:41:06 10° W 22:43:23 17° SW 22:44:38 14° SSW visible
26 May -2.3 21:52:54 10° WNW 21:55:49 28° SW 21:58:43 10° SSE visible
